Volver al catálogo

COSMOS 2251 DEB

ActivoLEO
NORAD 35469·DEBRIS·🇷🇺 Russia

Lanzado Jun 16, 1993 desde Plesetsk Cosmodrome

Loading…

Próximos Pases (próximas 24 horas)

TLE

ActualizadoSource: Space-Track

Época: Sep 13, 2026, 06:20 UTC

1 35469U 93036ALP 26256.26424524  .00000270  00000-0  74639-4 0  9990
2 35469  74.0151 227.7548 0077778 314.3440  45.1362 14.50021949920903

Sigue COSMOS 2251 DEB en tiempo real con AllMySat

Download on the App Store